FW9830 Weather Reports


Display with metric or nautical units.
time (UTC)temp
F
wind
direction
speed
MPH
gust
MPH
rain 1hr
in
rain 24hr
in
rain mn
in
humidity
%
barometer
mb
20260503035947 40 157 5.0 9.0 0.00 0.00 0.00 79 1013.7
20260503035444 40 167 7.0 9.0 0.00 0.00 0.00 80 1013.8
20260503034942 40 156 7.0 10.0 0.00 0.00 0.00 79 1013.8
20260503034438 41 159 8.0 9.0 0.00 0.00 0.00 78 1013.7
20260503033935 41 152 8.0 11.0 0.00 0.00 0.00 78 1013.7
20260503033433 41 154 7.0 11.0 0.00 0.00 0.00 78 1013.8
20260503032931 41 155 5.0 12.0 0.00 0.00 0.00 77 1014.0
20260503032429 41 159 8.0 12.0 0.00 0.00 0.00 76 1013.9
20260503031926 41 196 7.0 12.0 0.00 0.00 0.00 75 1014.0
20260503031424 41 195 9.0 13.0 0.00 0.00 0.00 75 1014.1
20260503030920 41 174 9.0 13.0 0.00 0.00 0.00 74 1014.1
20260503030417 41 196 12.0 13.0 0.00 0.00 0.00 74 1014.4
20260503025914 42 176 11.0 13.0 0.00 0.00 0.00 73 1014.5
20260503025411 42 167 8.0 14.0 0.00 0.00 0.00 73 1014.3
20260503024908 42 155 8.0 16.0 0.00 0.00 0.00 72 1014.3
20260503024404 42 168 11.0 15.0 0.00 0.00 0.00 72 1014.4
20260503023901 42 174 8.0 14.0 0.00 0.00 0.00 72 1014.3
20260503023359 42 178 8.0 13.0 0.00 0.00 0.00 72 1014.5
20260503022855 43 169 12.0 16.0 0.00 0.00 0.00 71 1014.3
20260503022350 43 161 11.0 15.0 0.00 0.00 0.00 70 1014.3
20260503021846 43 156 8.0 11.0 0.00 0.00 0.00 70 1014.5
20260503021342 43 163 11.0 12.0 0.00 0.00 0.00 69 1014.6
20260503020840 43 158 6.0 9.0 0.00 0.00 0.00 69 1014.7
20260503020338 43 174 6.0 11.0 0.00 0.00 0.00 69 1014.4
20260503015834 43 155 9.0 12.0 0.00 0.00 0.00 68 1014.6
20260503015331 44 170 10.0 15.0 0.00 0.00 0.00 67 1014.4
20260503014827 44 168 12.0 15.0 0.00 0.00 0.00 66 1014.5
20260503014325 44 161 11.0 13.0 0.00 0.00 0.00 66 1014.4
20260503013822 44 155 8.0 15.0 0.00 0.00 0.00 65 1014.4
20260503013319 44 154 8.0 13.0 0.00 0.00 0.00 65 1014.4
20260503012816 45 165 7.0 13.0 0.00 0.00 0.00 65 1014.5
20260503012314 45 157 9.0 14.0 0.00 0.00 0.00 64 1014.4
20260503011810 45 163 10.0 14.0 0.00 0.00 0.00 63 1014.5
20260503011307 45 172 10.0 14.0 0.00 0.00 0.00 63 1014.3
20260503010803 46 161 9.0 17.0 0.00 0.00 0.00 63 1014.7
20260503010301 46 160 10.0 14.0 0.00 0.00 0.00 62 1014.5
20260503005758 46 166 11.0 14.0 0.00 0.00 0.00 63 1014.6
20260503005255 46 154 12.0 18.0 0.00 0.00 0.00 61 1014.6
20260503004751 47 162 13.0 15.0 0.00 0.00 0.00 61 1014.6
20260503004249 47 152 7.0 14.0 0.00 0.00 0.00 61 1014.5
20260503003746 47 170 9.0 20.0 0.00 0.00 0.00 60 1014.6
20260503003243 48 190 9.0 20.0 0.00 0.00 0.00 59 1014.7
20260503002740 48 193 12.0 20.0 0.00 0.00 0.00 57 1014.4
20260503002237 49 159 14.0 17.0 0.00 0.00 0.00 58 1014.6
20260503001733 49 185 9.0 18.0 0.00 0.00 0.00 59 1014.5
20260503001229 49 154 9.0 17.0 0.00 0.00 0.00 57 1014.6
20260503000728 50 153 16.0 22.0 0.00 0.00 0.00 56 1014.5
20260503000226 50 183 11.0 15.0 0.00 0.00 0.00 58 1014.8
20260502235721 50 188 9.0 16.0 0.00 0.00 0.00 57 1014.6
20260502235219 51 170 10.0 14.0 0.00 0.00 0.00 56 1014.7
20260502234715 51 155 11.0 17.0 0.00 0.00 0.00 56 1014.8
20260502234213 51 151 11.0 19.0 0.00 0.00 0.00 57 1014.7
20260502233708 52 180 16.0 19.0 0.00 0.00 0.00 55 1014.5
20260502233205 52 140 16.0 19.0 0.00 0.00 0.00 55 1014.7
20260502232701 53 167 11.0 20.0 0.00 0.00 0.00 56 1014.7
20260502232159 53 177 5.0 21.0 0.00 0.00 0.00 53 1014.7
20260502231655 56 167 15.0 16.0 0.00 0.00 0.00 48 1014.6
20260502231153 57 237 7.0 9.0 0.00 0.00 0.00 37 1014.5
20260502230651 57 218 5.0 7.0 0.00 0.00 0.00 37 1014.5
20260502230150 57 234 4.0 10.0 0.00 0.00 0.00 38 1014.7
20260502225644 58 239 5.0 7.0 0.00 0.00 0.00 37 1014.7
20260502225143 57 231 8.0 9.0 0.00 0.00 0.00 38 1014.8
20260502224638 57 258 3.0 6.0 0.00 0.00 0.00 37 1015.0
20260502224135 57 228 9.0 15.0 0.00 0.00 0.00 36 1015.0
20260502223633 57 246 3.0 8.0 0.00 0.00 0.00 38 1015.1
20260502223131 56 245 13.0 14.0 0.00 0.00 0.00 37 1015.2
20260502222628 57 243 7.0 9.0 0.00 0.00 0.00 38 1015.0
20260502222125 57 247 8.0 10.0 0.00 0.00 0.00 39 1015.1
20260502221620 57 253 11.0 13.0 0.00 0.00 0.00 41 1015.1
20260502221118 57 248 8.0 13.0 0.00 0.00 0.00 38 1015.1
20260502220614 57 243 5.0 10.0 0.00 0.00 0.00 39 1015.1
20260502220110 57 241 9.0 13.0 0.00 0.00 0.00 39 1015.0
20260502215608 57 240 8.0 16.0 0.00 0.00 0.00 39 1015.3
20260502215104 57 225 7.0 15.0 0.00 0.00 0.00 38 1015.4
20260502214601 57 220 10.0 19.0 0.00 0.00 0.00 37 1015.2
20260502214059 56 242 11.0 15.0 0.00 0.00 0.00 38 1015.5
20260502213555 57 248 5.0 6.0 0.00 0.00 0.00 37 1015.5
20260502213053 57 231 7.0 9.0 0.00 0.00 0.00 39 1015.7
20260502212552 56 241 4.0 6.0 0.00 0.00 0.00 37 1015.5
20260502212049 55 220 9.0 15.0 0.00 0.00 0.00 37 1015.7
20260502211544 56 259 5.0 8.0 0.00 0.00 0.00 38 1015.7
20260502211042 56 232 10.0 16.0 0.00 0.00 0.00 37 1015.7
20260502210539 56 235 9.0 13.0 0.00 0.00 0.00 42 1015.7
20260502210036 56 232 10.0 12.0 0.00 0.00 0.00 39 1015.7
20260502205532 56 305 7.0 13.0 0.00 0.00 0.00 40 1015.8
20260502205030 55 236 3.0 9.0 0.00 0.00 0.00 38 1016.0
20260502204526 55 241 10.0 14.0 0.00 0.00 0.00 39 1016.0
20260502204025 55 229 5.0 15.0 0.00 0.00 0.00 39 1016.2
20260502203521 55 248 7.0 9.0 0.00 0.00 0.00 39 1016.2
20260502203018 55 225 7.0 12.0 0.00 0.00 0.00 39 1016.5
20260502202514 56 226 11.0 14.0 0.00 0.00 0.00 40 1016.3
20260502202013 55 255 9.0 15.0 0.00 0.00 0.00 42 1016.3
20260502201508 55 251 9.0 16.0 0.00 0.00 0.00 42 1016.6
20260502201005 55 239 12.0 14.0 0.00 0.00 0.00 40 1016.8
20260502200501 54 254 5.0 11.0 0.00 0.00 0.00 42 1016.9
20260502195959 55 335 4.0 7.0 0.00 0.00 0.00 38 1016.9
20260502195456 55 190 3.0 9.0 0.00 0.00 0.00 40 1016.9
20260502194952 54 304 6.0 11.0 0.00 0.00 0.00 43 1017.0
20260502194449 54 227 12.0 18.0 0.00 0.00 0.00 39 1017.2
20260502193944 55 217 8.0 11.0 0.00 0.00 0.00 42 1017.1
20260502193442 53 229 15.0 15.0 0.00 0.00 0.00 39 1017.4
20260502192938 53 165 3.0 10.0 0.00 0.00 0.00 40 1017.3
20260502192435 54 232 9.0 18.0 0.00 0.00 0.00 43 1017.6
20260502191932 54 84 1.0 12.0 0.00 0.00 0.00 39 1017.7
20260502191429 54 214 5.0 7.0 0.00 0.00 0.00 44 1017.7
20260502190927 54 280 5.0 6.0 0.00 0.00 0.00 42 1017.6
20260502190424 53 318 7.0 12.0 0.00 0.00 0.00 41 1017.9
20260502185920 53 260 6.0 11.0 0.00 0.00 0.00 39 1017.8
20260502185415 54 232 7.0 15.0 0.00 0.00 0.00 41 1018.0
20260502184913 54 186 1.0 5.0 0.00 0.00 0.00 45 1018.0
20260502184408 52 95 2.0 7.0 0.00 0.00 0.00 41 1018.0
20260502183905 53 275 6.0 15.0 0.00 0.00 0.00 46 1018.1
20260502183401 53 264 5.0 9.0 0.00 0.00 0.00 45 1018.2
20260502182856 52 302 3.0 10.0 0.00 0.00 0.00 41 1018.2
20260502182352 52 265 2.0 9.0 0.00 0.00 0.00 44 1018.4
20260502181848 51 226 11.0 17.0 0.00 0.00 0.00 46 1018.6
20260502181348 51 238 10.0 19.0 0.00 0.00 0.00 42 1018.7
20260502180845 51 244 6.0 9.0 0.00 0.00 0.00 42 1018.6
20260502180342 52 288 9.0 18.0 0.00 0.00 0.00 46 1018.7
20260502170301 49 310 5.0 10.0 0.00 0.00 0.00 43 1019.4
20260502164248 49 222 6.0 12.0 0.00 0.00 0.00 44 1019.6
20260502163744 50 250 2.0 4.0 0.00 0.00 0.00 48 1019.6
20260502163241 48 178 7.0 9.0 0.00 0.00 0.00 46 1019.6
20260502162738 48 227 7.0 9.0 0.00 0.00 0.00 46 1019.6
20260502162235 49 243 11.0 11.0 0.00 0.00 0.00 51 1019.7
20260502161732 48 315 9.0 9.0 0.00 0.00 0.00 48 1019.8
20260502161228 50 248 3.0 3.0 0.00 0.00 0.00 48 1019.9
20260502160726 49 26 3.0 6.0 0.00 0.00 0.00 47 1020.0
20260502160225 48 238 4.0 16.0 0.00 0.00 0.00 52 1020.0
20260502152149 46 300 5.0 8.0 0.00 0.00 0.00 47 1020.2
20260502151646 46 0 3.0 4.0 0.00 0.00 0.00 46 1020.1
20260502151143 48 180 0.0 3.0 0.00 0.00 0.00 47 1020.2
20260502150641 48 312 4.0 4.0 0.00 0.00 0.00 49 1020.2
20260502150137 48 102 4.0 4.0 0.00 0.00 0.00 48 1020.3
20260502130526 39 36 0.0 4.0 0.00 0.00 0.00 74 1021.3
20260502123509 38 4 2.0 4.0 0.00 0.00 0.00 76 1020.9
20260502123005 37 6 3.0 3.0 0.00 0.00 0.00 75 1021.0
20260502122502 38 354 3.0 3.0 0.00 0.00 0.00 75 1021.1
20260502121959 37 70 3.0 3.0 0.00 0.00 0.00 75 1020.9
20260502121456 37 16 3.0 3.0 0.00 0.00 0.00 75 1020.8
20260502120954 37 15 3.0 4.0 0.00 0.00 0.00 76 1021.2
20260502120450 37 2 3.0 5.0 0.00 0.00 0.00 77 1021.0
20260502115445 36 8 3.0 4.0 0.00 0.00 0.00 78 1021.0
20260502114941 36 350 2.0 3.0 0.00 0.00 0.00 79 1020.8
20260502114437 35 307 3.0 4.0 0.00 0.00 0.00 79 1020.9
20260502113935 35 312 4.0 4.0 0.00 0.00 0.00 80 1020.7
20260502113432 35 329 2.0 4.0 0.00 0.00 0.00 81 1020.8
20260502112931 35 327 3.0 5.0 0.00 0.00 0.00 81 1020.6
20260502112428 35 337 2.0 3.0 0.00 0.00 0.00 82 1020.7
20260502111925 35 350 2.0 3.0 0.00 0.00 0.00 82 1020.6
20260502111422 35 346 3.0 4.0 0.00 0.00 0.00 83 1020.6
20260502110920 34 343 3.0 4.0 0.00 0.00 0.00 84 1020.6
20260502110417 34 339 2.0 3.0 0.00 0.00 0.00 85 1020.5
20260502105914 34 341 4.0 4.0 0.00 0.00 0.00 85 1020.7
20260502105411 34 339 2.0 4.0 0.00 0.00 0.00 85 1020.6
20260502104910 33 328 3.0 4.0 0.00 0.00 0.00 85 1020.4
20260502104406 33 318 3.0 4.0 0.00 0.00 0.00 85 1020.4
20260502103904 34 322 2.0 4.0 0.00 0.00 0.00 84 1020.7
20260502103401 34 323 3.0 4.0 0.00 0.00 0.00 84 1020.4
20260502102858 34 346 2.0 3.0 0.00 0.00 0.00 84 1020.6
20260502102355 34 319 2.0 3.0 0.00 0.00 0.00 83 1020.4
20260502101852 34 334 2.0 3.0 0.00 0.00 0.00 82 1020.5
20260502101350 34 321 3.0 3.0 0.00 0.00 0.00 82 1020.4
20260502100848 34 337 0.0 2.0 0.00 0.00 0.00 82 1020.5
20260502100347 33 320 1.0 2.0 0.00 0.00 0.00 82 1020.4
20260502091321 33 294 1.0 2.0 0.00 0.00 0.00 80 1020.1
20260502090819 33 300 0.0 1.0 0.00 0.00 0.00 79 1020.4
20260502090315 34 312 2.0 3.0 0.00 0.00 0.00 77 1020.2
20260502071210 31 243 0.0 0.0 0.00 0.00 0.00 92 1020.2
20260502070709 31 194 0.0 2.0 0.00 0.00 0.00 92 1020.3
20260502070206 31 204 2.0 3.0 0.00 0.00 0.00 92 1020.2
20260502065704 32 203 1.0 2.0 0.00 0.00 0.00 92 1020.3
20260502065201 32 188 2.0 3.0 0.00 0.00 0.00 93 1020.4
20260502064700 31 191 2.0 3.0 0.00 0.00 0.00 93 1020.5
20260502064157 31 187 2.0 3.0 0.00 0.00 0.00 93 1020.3
20260502063655 31 172 2.0 3.0 0.00 0.00 0.00 93 1020.3
20260502063152 32 154 1.0 2.0 0.00 0.00 0.00 92 1020.3
20260502062649 32 157 0.0 1.0 0.00 0.00 0.00 92 1020.4
20260502062147 32 135 2.0 2.0 0.00 0.00 0.00 92 1020.4
20260502061645 32 164 3.0 3.0 0.00 0.00 0.00 92 1020.3
20260502061142 32 154 2.0 3.0 0.00 0.00 0.00 92 1020.1
20260502060642 32 200 0.0 3.0 0.00 0.00 0.00 92 1020.4
20260502060139 32 158 3.0 3.0 0.00 0.00 0.00 92 1020.2
20260502055637 32 158 3.0 4.0 0.00 0.00 0.00 92 1020.3
20260502055135 32 139 2.0 3.0 0.00 0.00 0.00 92 1020.4
20260502054634 32 166 3.0 4.0 0.00 0.00 0.00 92 1020.5
20260502054131 32 168 3.0 3.0 0.00 0.00 0.00 92 1020.3
20260502053628 32 160 3.0 3.0 0.00 0.00 0.00 92 1020.2
20260502053125 32 166 2.0 2.0 0.00 0.00 0.00 92 1020.5
20260502052623 32 154 2.0 3.0 0.00 0.00 0.00 92 1020.3
20260502052121 32 172 3.0 3.0 0.00 0.00 0.00 91 1020.5
20260502051619 32 151 2.0 3.0 0.00 0.00 0.00 91 1020.3
20260502051117 32 165 3.0 3.0 0.00 0.00 0.00 90 1020.5
20260502050613 33 161 3.0 3.0 0.00 0.00 0.00 89 1020.3
20260502050110 33 163 3.0 3.0 0.00 0.00 0.00 88 1020.3
20260502045606 33 162 3.0 4.0 0.00 0.00 0.00 87 1020.4
20260502045104 34 180 3.0 4.0 0.00 0.00 0.00 87 1020.2
20260502044600 34 188 3.0 3.0 0.00 0.00 0.00 87 1020.3
20260502044057 34 199 3.0 3.0 0.00 0.00 0.00 87 1020.3
20260502043554 34 194 2.0 3.0 0.00 0.00 0.00 88 1020.4
20260502043050 33 168 2.0 3.0 0.00 0.00 0.00 87 1020.4
20260502042545 33 154 3.0 4.0 0.00 0.00 0.00 86 1020.4
20260502042043 34 180 3.0 3.0 0.00 0.00 0.00 86 1020.4
20260502041541 34 195 3.0 3.0 0.00 0.00 0.00 86 1020.4
20260502041037 34 173 2.0 3.0 0.00 0.00 0.00 85 1020.4
20260502040534 35 140 1.0 2.0 0.00 0.00 0.00 84 1020.5
20260502040031 35 182 3.0 3.0 0.00 0.00 0.00 83 1020.6